Location: Devore Heights
(34.2372°N, 117.4156°W)
Time: 22:04:22
(UTC+00:00)

Transit 4A - Pass Details

Date: 18 September 2024
Orbit: 864 x 978 km, 66.8° (Epoch: 13 October)

Event Time Altitude Azimuth Distance (km) Brightness Sun altitude
Rises 10:16:27 0° 226° (SW) 3,437 - -39.3°
Reaches altitude 10° 10:19:03 10° 233° (SW) 2,511 - -38.9°
Maximum altitude 10:24:28 40° 302° (WNW) 1,278 - -38.0°
Exits shadow 10:28:00 21° 0° (N) 1,918 9.8 -37.4°
Drops below altitude 10° 10:30:02 10° 11° (NNE) 2,577 10.6 -37.0°
Sets 10:32:45 0° 19° (NNE) 3,539 11.6 -36.6°
